| time (UTC) | temp F | wind direction | speed MPH | gust MPH | rain 1hr in | rain 24hr in | rain mn in | humidity % | barometer mb |
| 20260902184558 | 84 | 208 | 1.0 | 5.0 | 0.00 | 0.00 | 0.00 | 25 | 1017.0 |
| 20260902184523 | 84 | 208 | 1.0 | 5.0 | 0.00 | 0.00 | 0.00 | 27 | 1013.2 |
| 20260902183127 | 83 | 171 | 1.0 | 9.0 | 0.00 | 0.00 | 0.00 | 29 | 1016.9 |
| 20260902183019 | 83 | 171 | 1.0 | 7.0 | 0.00 | 0.00 | 0.00 | 29 | 1013.2 |
| 20260902181611 | 83 | 235 | 2.0 | 6.0 | 0.00 | 0.00 | 0.00 | 33 | 1017.3 |
| 20260902181515 | 83 | 237 | 2.0 | 7.0 | 0.00 | 0.00 | 0.00 | 35 | 1013.5 |
| 20260902180104 | 82 | 214 | 0.0 | 5.0 | 0.00 | 0.00 | 0.00 | 35 | 1017.5 |
| 20260902180010 | 82 | 213 | 1.0 | 4.0 | 0.00 | 0.00 | 0.00 | 37 | 1013.6 |
| 20260902174555 | 80 | 210 | 1.0 | 5.0 | 0.00 | 0.00 | 0.00 | 36 | 1017.5 |
| 20260902174507 | 80 | 210 | 1.0 | 5.0 | 0.00 | 0.00 | 0.00 | 36 | 1013.6 |
| 20260902173113 | 79 | 223 | 1.0 | 4.0 | 0.00 | 0.00 | 0.00 | 36 | 1017.5 |
| 20260902173002 | 79 | 223 | 0.0 | 4.0 | 0.00 | 0.00 | 0.00 | 37 | 1013.6 |
| 20260902171608 | 77 | 0 | 0.0 | 3.0 | 0.00 | 0.00 | 0.00 | 43 | 1017.4 |
| 20260902171602 | 78 | 223 | 0.0 | 3.0 | 0.00 | 0.00 | 0.00 | 44 | 1013.6 |
| 20260902170103 | 75 | 0 | 0.0 | 2.0 | 0.00 | 0.00 | 0.00 | 46 | 1017.5 |
| 20260902170054 | 75 | 223 | 0.0 | 2.0 | 0.00 | 0.00 | 0.00 | 46 | 1013.6 |
| 20260902164603 | 73 | 223 | 0.0 | 3.0 | 0.00 | 0.00 | 0.00 | 49 | 1017.4 |
| 20260902164550 | 73 | 223 | 0.0 | 3.0 | 0.00 | 0.00 | 0.00 | 50 | 1013.5 |
| 20260902163102 | 71 | 0 | 0.0 | 4.0 | 0.00 | 0.00 | 0.00 | 53 | 1017.4 |
| 20260902163055 | 71 | 223 | 0.0 | 4.0 | 0.00 | 0.00 | 0.00 | 53 | 1013.5 |
| 20260902161552 | 69 | 224 | 0.0 | 4.0 | 0.00 | 0.00 | 0.00 | 58 | 1017.4 |
| 20260902161541 | 69 | 224 | 0.0 | 4.0 | 0.00 | 0.00 | 0.00 | 58 | 1013.5 |
| 20260902160108 | 67 | 224 | 0.0 | 4.0 | 0.00 | 0.00 | 0.00 | 62 | 1017.4 |
| 20260902160036 | 67 | 224 | 1.0 | 3.0 | 0.00 | 0.00 | 0.00 | 63 | 1013.5 |
| 20260902154558 | 64 | 0 | 0.0 | 3.0 | 0.00 | 0.00 | 0.00 | 74 | 1017.3 |
| 20260902154531 | 64 | 225 | 0.0 | 3.0 | 0.00 | 0.00 | 0.00 | 75 | 1013.5 |
| 20260902153056 | 61 | 0 | 0.0 | 1.0 | 0.00 | 0.00 | 0.00 | 89 | 1017.3 |
| 20260902153031 | 61 | 225 | 0.0 | 1.0 | 0.00 | 0.00 | 0.00 | 89 | 1013.5 |
| 20260902151553 | 59 | 0 | 0.0 | 0.0 | 0.00 | 0.00 | 0.00 | 90 | 1017.5 |
| 20260902151530 | 59 | 224 | 0.0 | 0.0 | 0.00 | 0.00 | 0.00 | 91 | 1013.8 |
| 20260902150028 | 57 | 225 | 0.0 | 1.0 | 0.00 | 0.00 | 0.00 | 90 | 1013.7 |
| 20260902144558 | 57 | 0 | 0.0 | 2.0 | 0.00 | 0.00 | 0.00 | 89 | 1017.5 |
| 20260902144534 | 57 | 225 | 0.0 | 2.0 | 0.00 | 0.00 | 0.00 | 90 | 1013.7 |
| 20260902143059 | 56 | 225 | 0.0 | 2.0 | 0.00 | 0.00 | 0.00 | 89 | 1017.4 |
| 20260902143024 | 56 | 224 | 0.0 | 2.0 | 0.00 | 0.00 | 0.00 | 89 | 1013.5 |
| 20260902141602 | 55 | 0 | 0.0 | 0.0 | 0.00 | 0.00 | 0.00 | 86 | 1017.2 |
| 20260902141530 | 55 | 224 | 0.0 | 0.0 | 0.00 | 0.00 | 0.00 | 87 | 1013.3 |
| 20260902140100 | 55 | 0 | 0.0 | 0.0 | 0.00 | 0.00 | 0.00 | 86 | 1017.0 |
| 20260902140030 | 55 | 224 | 0.0 | 0.0 | 0.00 | 0.00 | 0.00 | 87 | 1013.0 |
| 20260902134558 | 55 | 0 | 0.0 | 0.0 | 0.00 | 0.00 | 0.00 | 87 | 1016.7 |
| 20260902134518 | 55 | 224 | 0.0 | 0.0 | 0.00 | 0.00 | 0.00 | 87 | 1012.9 |
| 20260902133056 | 56 | 0 | 0.0 | 0.0 | 0.00 | 0.00 | 0.00 | 87 | 1016.7 |
| 20260902133017 | 56 | 225 | 0.0 | 0.0 | 0.00 | 0.00 | 0.00 | 87 | 1012.9 |
| 20260902131602 | 56 | 0 | 0.0 | 0.0 | 0.00 | 0.00 | 0.00 | 87 | 1016.7 |
| 20260902131528 | 56 | 224 | 0.0 | 0.0 | 0.00 | 0.00 | 0.00 | 87 | 1012.9 |
| 20260902130057 | 56 | 0 | 0.0 | 0.0 | 0.00 | 0.00 | 0.00 | 86 | 1016.5 |
| 20260902130015 | 56 | 225 | 0.0 | 0.0 | 0.00 | 0.00 | 0.00 | 87 | 1012.8 |
| 20260902124556 | 55 | 0 | 0.0 | 0.0 | 0.00 | 0.00 | 0.00 | 85 | 1016.5 |
| 20260902124514 | 55 | 224 | 0.0 | 0.0 | 0.00 | 0.00 | 0.00 | 86 | 1012.9 |
| 20260902123106 | 55 | 0 | 0.0 | 0.0 | 0.00 | 0.00 | 0.00 | 84 | 1016.6 |
| 20260902123016 | 55 | 224 | 0.0 | 0.0 | 0.00 | 0.00 | 0.00 | 85 | 1012.9 |
| 20260902121600 | 56 | 0 | 0.0 | 0.0 | 0.00 | 0.00 | 0.00 | 84 | 1016.7 |
| 20260902121513 | 56 | 225 | 0.0 | 0.0 | 0.00 | 0.00 | 0.00 | 84 | 1013.0 |
| 20260902120059 | 56 | 0 | 0.0 | 0.0 | 0.00 | 0.00 | 0.00 | 84 | 1017.0 |
| 20260902120009 | 56 | 225 | 0.0 | 0.0 | 0.00 | 0.00 | 0.00 | 84 | 1013.2 |
| 20260902114556 | 56 | 0 | 0.0 | 0.0 | 0.00 | 0.00 | 0.00 | 84 | 1016.9 |
| 20260902114513 | 56 | 224 | 0.0 | 0.0 | 0.00 | 0.00 | 0.00 | 84 | 1013.2 |
| 20260902113102 | 57 | 0 | 0.0 | 0.0 | 0.00 | 0.00 | 0.00 | 83 | 1017.1 |
| 20260902113006 | 57 | 224 | 0.0 | 0.0 | 0.00 | 0.00 | 0.00 | 84 | 1013.1 |
| 20260902111550 | 57 | 0 | 0.0 | 0.0 | 0.00 | 0.00 | 0.00 | 83 | 1017.1 |
| 20260902111512 | 57 | 224 | 0.0 | 0.0 | 0.00 | 0.00 | 0.00 | 84 | 1013.3 |
| 20260902110058 | 58 | 0 | 0.0 | 0.0 | 0.00 | 0.00 | 0.00 | 83 | 1017.1 |
| 20260902110003 | 58 | 225 | 0.0 | 0.0 | 0.00 | 0.00 | 0.00 | 84 | 1013.3 |
| 20260902104607 | 58 | 0 | 0.0 | 0.0 | 0.00 | 0.00 | 0.00 | 83 | 1017.2 |
| 20260902104601 | 58 | 224 | 0.0 | 0.0 | 0.00 | 0.00 | 0.00 | 84 | 1013.4 |
| 20260902103104 | 59 | 225 | 0.0 | 0.0 | 0.00 | 0.00 | 0.00 | 84 | 1013.4 |
| 20260902103052 | 59 | 0 | 0.0 | 0.0 | 0.00 | 0.00 | 0.00 | 83 | 1017.3 |
| 20260902101600 | 59 | 0 | 0.0 | 0.0 | 0.00 | 0.00 | 0.00 | 83 | 1017.3 |
| 20260902101557 | 59 | 225 | 0.0 | 0.0 | 0.00 | 0.00 | 0.00 | 84 | 1013.5 |
| 20260902100112 | 60 | 224 | 0.0 | 0.0 | 0.00 | 0.00 | 0.00 | 84 | 1013.4 |
| 20260902100058 | 60 | 0 | 0.0 | 0.0 | 0.00 | 0.00 | 0.00 | 83 | 1017.4 |
| 20260902094558 | 60 | 0 | 0.0 | 0.0 | 0.00 | 0.00 | 0.00 | 83 | 1017.6 |
| 20260902094554 | 60 | 225 | 0.0 | 0.0 | 0.00 | 0.00 | 0.00 | 83 | 1013.5 |
| 20260902093101 | 60 | 0 | 0.0 | 0.0 | 0.00 | 0.00 | 0.00 | 83 | 1017.6 |
| 20260902093052 | 60 | 224 | 0.0 | 0.0 | 0.00 | 0.00 | 0.00 | 83 | 1013.5 |
| 20260902091606 | 61 | 225 | 0.0 | 0.0 | 0.00 | 0.00 | 0.00 | 83 | 1013.5 |
| 20260902091600 | 61 | 0 | 0.0 | 0.0 | 0.00 | 0.00 | 0.00 | 83 | 1017.7 |
| 20260902090104 | 61 | 0 | 0.0 | 0.0 | 0.00 | 0.00 | 0.00 | 83 | 1017.5 |
| 20260902090049 | 61 | 225 | 0.0 | 0.0 | 0.00 | 0.00 | 0.00 | 83 | 1013.5 |
| 20260902084559 | 62 | 0 | 0.0 | 0.0 | 0.00 | 0.00 | 0.00 | 83 | 1017.7 |
| 20260902084548 | 62 | 225 | 0.0 | 0.0 | 0.00 | 0.00 | 0.00 | 83 | 1013.7 |
| 20260902083106 | 62 | 0 | 0.0 | 0.0 | 0.00 | 0.00 | 0.00 | 82 | 1017.6 |
| 20260902083046 | 62 | 225 | 0.0 | 0.0 | 0.00 | 0.00 | 0.00 | 82 | 1013.7 |
| 20260902081601 | 62 | 0 | 0.0 | 0.0 | 0.00 | 0.00 | 0.00 | 81 | 1017.8 |
| 20260902081545 | 62 | 225 | 0.0 | 0.0 | 0.00 | 0.00 | 0.00 | 82 | 1013.7 |
| 20260902080059 | 62 | 0 | 0.0 | 1.0 | 0.00 | 0.00 | 0.00 | 80 | 1017.5 |
| 20260902080057 | 62 | 225 | 0.0 | 1.0 | 0.00 | 0.00 | 0.00 | 80 | 1013.4 |
| 20260902074603 | 63 | 0 | 0.0 | 0.0 | 0.00 | 0.00 | 0.00 | 76 | 1017.4 |
| 20260902074540 | 63 | 224 | 0.0 | 0.0 | 0.00 | 0.00 | 0.00 | 77 | 1013.5 |
| 20260902073055 | 63 | 0 | 0.0 | 0.0 | 0.00 | 0.00 | 0.00 | 74 | 1017.3 |
| 20260902073038 | 63 | 225 | 0.0 | 0.0 | 0.00 | 0.00 | 0.00 | 74 | 1013.4 |
| 20260902071605 | 63 | 0 | 0.0 | 0.0 | 0.00 | 0.00 | 0.00 | 70 | 1017.2 |
| 20260902071552 | 63 | 224 | 0.0 | 0.0 | 0.00 | 0.00 | 0.00 | 71 | 1013.1 |
| 20260902070032 | 64 | 224 | 0.0 | 0.0 | 0.00 | 0.00 | 0.00 | 69 | 1012.9 |
| 20260902064558 | 64 | 0 | 0.0 | 0.0 | 0.00 | 0.00 | 0.00 | 66 | 1016.9 |
| 20260902064532 | 64 | 225 | 0.0 | 0.0 | 0.00 | 0.00 | 0.00 | 66 | 1012.9 |
| 20260902063055 | 65 | 0 | 0.0 | 1.0 | 0.00 | 0.00 | 0.00 | 64 | 1017.0 |
| 20260902063041 | 65 | 225 | 0.0 | 1.0 | 0.00 | 0.00 | 0.00 | 65 | 1013.0 |
| 20260902061544 | 65 | 224 | 0.0 | 2.0 | 0.00 | 0.00 | 0.00 | 65 | 1012.9 |
| 20260902060034 | 66 | 224 | 0.0 | 1.0 | 0.00 | 0.00 | 0.00 | 63 | 1012.9 |
| 20260902054611 | 66 | 0 | 0.0 | 1.0 | 0.00 | 0.00 | 0.00 | 60 | 1016.8 |
| 20260902054540 | 66 | 224 | 0.0 | 1.0 | 0.00 | 0.00 | 0.00 | 61 | 1012.8 |
| 20260902053105 | 67 | 0 | 0.0 | 2.0 | 0.00 | 0.00 | 0.00 | 58 | 1016.7 |
| 20260902053030 | 67 | 225 | 0.0 | 2.0 | 0.00 | 0.00 | 0.00 | 59 | 1012.8 |
| 20260902051602 | 67 | 0 | 0.0 | 3.0 | 0.00 | 0.00 | 0.00 | 55 | 1016.7 |
| 20260902051532 | 67 | 225 | 0.0 | 3.0 | 0.00 | 0.00 | 0.00 | 56 | 1012.8 |
| 20260902050035 | 67 | 225 | 0.0 | 3.0 | 0.00 | 0.00 | 0.00 | 55 | 1012.7 |
| 20260902044558 | 68 | 225 | 0.0 | 1.0 | 0.00 | 0.00 | 0.00 | 54 | 1016.6 |
| 20260902044531 | 68 | 225 | 0.0 | 1.0 | 0.00 | 0.00 | 0.00 | 54 | 1012.4 |
| 20260902043057 | 69 | 0 | 0.0 | 0.0 | 0.00 | 0.00 | 0.00 | 53 | 1016.5 |
| 20260902043028 | 69 | 225 | 0.0 | 0.0 | 0.00 | 0.00 | 0.00 | 53 | 1012.3 |
| 20260902041603 | 69 | 0 | 0.0 | 1.0 | 0.00 | 0.00 | 0.00 | 56 | 1016.2 |
| 20260902041537 | 69 | 225 | 0.0 | 1.0 | 0.00 | 0.00 | 0.00 | 56 | 1012.1 |
| 20260902040107 | 70 | 0 | 0.0 | 1.0 | 0.00 | 0.00 | 0.00 | 51 | 1016.2 |
| 20260902040027 | 70 | 225 | 0.0 | 1.0 | 0.00 | 0.00 | 0.00 | 51 | 1011.9 |
| 20260902034601 | 71 | 0 | 0.0 | 4.0 | 0.00 | 0.00 | 0.00 | 50 | 1015.9 |
| 20260902034526 | 71 | 225 | 0.0 | 3.0 | 0.00 | 0.00 | 0.00 | 50 | 1011.7 |
| 20260902033101 | 71 | 0 | 0.0 | 5.0 | 0.00 | 0.00 | 0.00 | 50 | 1015.6 |
| 20260902033026 | 72 | 227 | 0.0 | 5.0 | 0.00 | 0.00 | 0.00 | 51 | 1011.3 |
| 20260902031558 | 73 | 163 | 2.0 | 5.0 | 0.00 | 0.00 | 0.00 | 46 | 1015.4 |
| 20260902031525 | 73 | 163 | 1.0 | 4.0 | 0.00 | 0.00 | 0.00 | 47 | 1011.2 |
| 20260902030058 | 74 | 170 | 0.0 | 6.0 | 0.00 | 0.00 | 0.00 | 43 | 1015.4 |
| 20260902030024 | 74 | 170 | 0.0 | 5.0 | 0.00 | 0.00 | 0.00 | 44 | 1011.2 |
| 20260902024557 | 75 | 169 | 1.0 | 5.0 | 0.00 | 0.00 | 0.00 | 41 | 1015.2 |
| 20260902024524 | 75 | 171 | 0.0 | 4.0 | 0.00 | 0.00 | 0.00 | 41 | 1010.9 |
| 20260902023107 | 76 | 204 | 1.0 | 5.0 | 0.00 | 0.00 | 0.00 | 38 | 1015.0 |
| 20260902023024 | 76 | 204 | 2.0 | 5.0 | 0.00 | 0.00 | 0.00 | 39 | 1010.7 |
| 20260902021601 | 77 | 0 | 1.0 | 5.0 | 0.00 | 0.00 | 0.00 | 35 | 1014.8 |
| 20260902021528 | 77 | 217 | 1.0 | 5.0 | 0.00 | 0.00 | 0.00 | 35 | 1010.7 |
| 20260902020058 | 78 | 199 | 2.0 | 6.0 | 0.00 | 0.00 | 0.00 | 34 | 1014.8 |
| 20260902020023 | 78 | 199 | 2.0 | 6.0 | 0.00 | 0.00 | 0.00 | 34 | 1010.7 |
| 20260902014600 | 80 | 133 | 2.0 | 7.0 | 0.00 | 0.00 | 0.00 | 32 | 1014.9 |
| 20260902014528 | 80 | 231 | 2.0 | 7.0 | 0.00 | 0.00 | 0.00 | 33 | 1010.6 |
| 20260902013058 | 81 | 180 | 1.0 | 7.0 | 0.00 | 0.00 | 0.00 | 30 | 1014.7 |
| 20260902013022 | 81 | 182 | 2.0 | 7.0 | 0.00 | 0.00 | 0.00 | 30 | 1010.6 |
| 20260902011557 | 82 | 146 | 2.0 | 7.0 | 0.00 | 0.00 | 0.00 | 29 | 1014.7 |
| 20260902011525 | 82 | 146 | 3.0 | 6.0 | 0.00 | 0.00 | 0.00 | 29 | 1010.4 |
| 20260902010058 | 83 | 206 | 2.0 | 7.0 | 0.00 | 0.00 | 0.00 | 28 | 1014.5 |
| 20260902010038 | 83 | 204 | 2.0 | 6.0 | 0.00 | 0.00 | 0.00 | 28 | 1010.3 |
| 20260902004558 | 84 | 211 | 1.0 | 9.0 | 0.00 | 0.00 | 0.00 | 27 | 1014.5 |
| 20260902004520 | 84 | 211 | 2.0 | 8.0 | 0.00 | 0.00 | 0.00 | 27 | 1010.4 |
| 20260902003055 | 84 | 226 | 2.0 | 10.0 | 0.00 | 0.00 | 0.00 | 26 | 1014.6 |
| 20260902003019 | 84 | 219 | 2.0 | 8.0 | 0.00 | 0.00 | 0.00 | 26 | 1010.5 |
| 20260902001619 | 85 | 228 | 3.0 | 8.0 | 0.00 | 0.00 | 0.00 | 25 | 1014.7 |
| 20260902001519 | 85 | 129 | 3.0 | 8.0 | 0.00 | 0.00 | 0.00 | 26 | 1010.6 |
| 20260902000104 | 86 | 234 | 2.0 | 9.0 | 0.00 | 0.00 | 0.00 | 25 | 1014.6 |
| 20260902000032 | 86 | 137 | 2.0 | 7.0 | 0.00 | 0.00 | 0.00 | 25 | 1010.6 |
| 20260901234604 | 87 | 0 | 1.0 | 9.0 | 0.00 | 0.00 | 0.00 | 24 | 1014.6 |
| 20260901234516 | 87 | 192 | 1.0 | 5.0 | 0.00 | 0.00 | 0.00 | 25 | 1010.6 |
| 20260901233101 | 88 | 200 | 0.0 | 8.0 | 0.00 | 0.00 | 0.00 | 23 | 1014.6 |
| 20260901233016 | 88 | 202 | 0.0 | 7.0 | 0.00 | 0.00 | 0.00 | 24 | 1010.6 |
| 20260901231604 | 88 | 146 | 3.0 | 9.0 | 0.00 | 0.00 | 0.00 | 21 | 1014.7 |
| 20260901231517 | 88 | 217 | 3.0 | 9.0 | 0.00 | 0.00 | 0.00 | 22 | 1010.6 |
| 20260901230105 | 89 | 225 | 3.0 | 10.0 | 0.00 | 0.00 | 0.00 | 21 | 1014.6 |
| 20260901230026 | 89 | 121 | 3.0 | 10.0 | 0.00 | 0.00 | 0.00 | 21 | 1010.7 |
| 20260901224555 | 90 | 183 | 1.0 | 10.0 | 0.00 | 0.00 | 0.00 | 21 | 1014.7 |
| 20260901224517 | 90 | 186 | 2.0 | 10.0 | 0.00 | 0.00 | 0.00 | 22 | 1010.8 |
| 20260901223059 | 91 | 190 | 2.0 | 9.0 | 0.00 | 0.00 | 0.00 | 23 | 1014.8 |
| 20260901223034 | 91 | 189 | 2.0 | 9.0 | 0.00 | 0.00 | 0.00 | 24 | 1010.9 |
| 20260901221618 | 91 | 221 | 2.0 | 8.0 | 0.00 | 0.00 | 0.00 | 24 | 1015.1 |
| 20260901221513 | 91 | 200 | 2.0 | 7.0 | 0.00 | 0.00 | 0.00 | 24 | 1011.1 |
| 20260901220116 | 91 | 213 | 1.0 | 7.0 | 0.00 | 0.00 | 0.00 | 24 | 1015.1 |
| 20260901220011 | 91 | 212 | 2.0 | 6.0 | 0.00 | 0.00 | 0.00 | 24 | 1011.1 |
| 20260901214557 | 92 | 223 | 2.0 | 8.0 | 0.00 | 0.00 | 0.00 | 24 | 1015.2 |
| 20260901214513 | 92 | 222 | 2.0 | 7.0 | 0.00 | 0.00 | 0.00 | 25 | 1011.1 |
| 20260901213052 | 92 | 234 | 1.0 | 8.0 | 0.00 | 0.00 | 0.00 | 25 | 1015.4 |
| 20260901213010 | 92 | 225 | 2.0 | 7.0 | 0.00 | 0.00 | 0.00 | 26 | 1011.2 |
| 20260901211557 | 91 | 216 | 3.0 | 7.0 | 0.00 | 0.00 | 0.00 | 26 | 1015.4 |
| 20260901211521 | 91 | 153 | 3.0 | 6.0 | 0.00 | 0.00 | 0.00 | 26 | 1011.3 |
| 20260901210057 | 92 | 215 | 1.0 | 9.0 | 0.00 | 0.00 | 0.00 | 24 | 1015.4 |
| 20260901210008 | 92 | 210 | 1.0 | 8.0 | 0.00 | 0.00 | 0.00 | 25 | 1011.3 |
| 20260901204555 | 92 | 0 | 1.0 | 5.0 | 0.00 | 0.00 | 0.00 | 23 | 1015.3 |
| 20260901204510 | 92 | 173 | 2.0 | 5.0 | 0.00 | 0.00 | 0.00 | 23 | 1011.6 |
| 20260901203056 | 92 | 217 | 1.0 | 4.0 | 0.00 | 0.00 | 0.00 | 24 | 1015.5 |
| 20260901203005 | 92 | 217 | 1.0 | 4.0 | 0.00 | 0.00 | 0.00 | 24 | 1011.7 |
| 20260901201600 | 91 | 210 | 1.0 | 7.0 | 0.00 | 0.00 | 0.00 | 22 | 1015.7 |
| 20260901201504 | 91 | 219 | 2.0 | 6.0 | 0.00 | 0.00 | 0.00 | 23 | 1011.8 |
| 20260901200056 | 92 | 226 | 1.0 | 8.0 | 0.00 | 0.00 | 0.00 | 22 | 1015.9 |
| 20260901200009 | 92 | 226 | 2.0 | 8.0 | 0.00 | 0.00 | 0.00 | 22 | 1012.1 |
| 20260901194557 | 91 | 0 | 1.0 | 7.0 | 0.00 | 0.00 | 0.00 | 21 | 1016.1 |
| 20260901194502 | 91 | 107 | 1.0 | 5.0 | 0.00 | 0.00 | 0.00 | 21 | 1012.3 |
| 20260901193116 | 91 | 182 | 0.0 | 2.0 | 0.00 | 0.00 | 0.00 | 23 | 1012.4 |
| 20260901193052 | 91 | 0 | 0.0 | 3.0 | 0.00 | 0.00 | 0.00 | 24 | 1016.3 |
| 20260901191610 | 91 | 0 | 0.0 | 4.0 | 0.00 | 0.00 | 0.00 | 22 | 1016.3 |
| 20260901191558 | 91 | 182 | 0.0 | 3.0 | 0.00 | 0.00 | 0.00 | 23 | 1012.5 |
| 20260901190055 | 89 | 0 | 0.0 | 4.0 | 0.00 | 0.00 | 0.00 | 24 | 1016.5 |